Flag for Germany Weather past 2 weeks in Oberursel (Taunus), Hesse, Germany

Now
62 °F

Partly sunny.


Feels Like: 62 °F
Forecast: 47 / 60 °F
Wind: 8 mph from West

Location: Frankfurt / M-Flughafen

Current Time: Sep 5, 2015 at 6:47:39 PM

Latest Report: Sep 5, 2015 at 6:00 PM


Visibility: 28 mi

Pressure: 30.01 "Hg

Humidity: 68%

Dew point: 51 °F

Location of Oberursel (Taunus)Location

Historic Weather in Oberursel (Taunus) — Graph

°F

Oberursel (Taunus) temperature yesterday

Maximum temperature yesterday: 66 °F (at 2:00 PM)
Minimum temperature yesterday: 50 °F (at 4:00 AM)
Average temperature yesterday: 58 °F

Past Weeks' High & Low Weather Summary

 TemperatureHumidityPressure
High92 °F (Aug 31, 4:00 PM)100% (Aug 29, 6:00 AM)30.22 "Hg (Aug 29, 6:00 AM)
Low46 °F (Sep 5, 6:00 AM)21% (Aug 31, 6:00 PM)29.66 "Hg (Aug 23, 7:00 PM)
Average67 °F68%29.97 "Hg
* Reported Aug 21 4:00 PM — Sep 5 4:00 PM, Oberursel (Taunus), Weather by CustomWeather, © 2015

Note: Actual official high and low records may vary slightly from our data, if they occured in-between our weather recording intervals... More about our weather records

Advertising

Oberursel (Taunus) weather history for previous 24 hours

 ConditionsComfort  
Time TempWeatherWind HumidityBarometerVisibility
4:00 PM
Sat, Sep 5
58 °FOvercast.6 mph92%30.03 "Hg19 mi
3:00 PM61 °FSprinkles. Overcast.6 mph71%30.02 "Hg12 mi
2:00 PM57 °FSprinkles. Overcast.8 mph86%30.03 "Hg7 mi
1:00 PM60 °FOvercast.6 mph66%30.03 "Hg11 mi
12:00 PM60 °FOvercast.6 mph65%30.02 "Hg16 mi
10:00 AM54 °FOvercast.5 mph82%30.02 "Hg12 mi
9:00 AM51 °FOvercast.6 mph88%30.02 "Hg16 mi
8:00 AM49 °FOvercast.6 mph94%30.02 "Hg12 mi
7:00 AM46 °FPartly sunny.5 mph97%30.00 "Hg12 mi
6:00 AM46 °FPassing clouds.5 mph96%29.99 "Hg28 mi
4:00 AM47 °FClear.2 mph91%30.00 "Hg34 mi
3:00 AM48 °FClear.1 mph90%30.01 "Hg34 mi
2:00 AM49 °FPassing clouds.3 mph88%30.01 "Hg34 mi
1:00 AM50 °FPassing clouds.3 mph85%30.00 "Hg34 mi
11:00 PM
Fri, Sep 4
53 °FPassing clouds.2 mph75%29.99 "Hg37 mi
10:00 PM56 °FPassing clouds.5 mph64%29.99 "Hg37 mi
9:00 PM58 °FPassing clouds.5 mph57%29.98 "Hg37 mi
8:00 PM61 °FPartly sunny.7 mph47%29.97 "Hg37 mi
7:00 PM63 °FPartly sunny.8 mph47%29.97 "Hg37 mi
6:00 PM64 °FPartly sunny.7 mph41%29.96 "Hg37 mi
Weather by CustomWeather, © 2015

See weather overviewHow to use our weather pages